#timestamp,LO_Frequency,Hit,StdDev 
1526986815.4,286046998.2,N
1526986835.3,286046998.9,N
1526986855.1,286047000.0,N
1526986875.9,286047000.8,N
1526986895.7,286046999.3,N
1526986915.5,286046996.7,N
1526986935.4,286046997.2,N
1526986955.2,286046997.7,N
1526986975.0,286046999.5,N
1526986976.0,286046999.5,N
1526986995.8,286046998.8,N
1526987015.6,286047001.2,N
1526987035.5,286047000.6,N
1526987055.3,286046999.9,N
1526987075.1,286047001.0,N
1526987095.9,286047000.9,N
1526987115.7,286046998.9,N
1526987135.6,286046998.7,N
1526987155.4,286046999.4,N
1526987175.2,286046999.2,N
1526987195.1,286046998.3,N
1526987196.0,286046998.3,N
1526987215.8,286046998.8,N
1526987235.7,286046998.9,N
1526987255.5,286046999.6,N
1526987275.3,286046998.3,N
1526987295.2,286047001.2,N
1526987315.9,286047000.8,N
1526987335.7,286047001.0,N
1526987355.6,286046998.2,N
1526987375.4,286046999.0,N
1526987395.3,286046998.1,N
1526987415.1,286047000.2,N
1526987416.0,286047000.2,N
1526987435.8,286047000.4,N
1526987455.7,286047001.8,N
1526987475.5,286047004.4,Y
1526987495.3,286047003.2,P
1526987515.2,286047001.3,N
1526987535.0,286047002.9,N
1526987535.9,286047002.9,N
1526987555.8,286047005.9,Y
1526987575.6,286047001.9,P
1526987595.4,286047001.7,P
1526987615.3,286047000.3,N
1526987635.1,286047002.7,Y
1526987655.9,286047000.2,P
1526987675.7,286047000.0,N
1526987695.5,286047000.3,N
1526987715.4,286046999.2,N
1526987735.2,286046999.2,N
1526987755.0,286046998.9,N
1526987755.9,286046998.9,N
1526987775.8,286046999.1,N
1526987795.6,286046999.1,N
1526987815.5,286046996.9,Y
1526987835.3,286046996.5,P
1526987855.1,286046998.0,N
1526987875.9,286046995.2,P
1526987895.7,286046995.7,N
1526987915.5,286046995.6,N
1526987935.4,286046995.1,Y
1526987955.2,286047001.1,P
1526987975.1,286047002.7,N
1526987976.0,286047002.7,N
1526987995.8,286047000.4,N
1526988015.6,286047001.1,N
1526988035.5,286047001.1,N
1526988055.3,286046998.2,N
1526988075.2,286047000.2,N
1526988095.9,286046998.5,N
1526988115.7,286047000.7,N
1526988135.6,286047000.1,N
1526988155.4,286047002.6,N
1526988175.2,286047000.1,N
1526988195.1,286046999.8,N
1526988196.0,286046999.8,N
1526988215.8,286047000.5,N
1526988235.7,286046998.7,N
1526988255.5,286046998.1,N
1526988275.3,286047000.7,N
1526988295.2,286046999.9,N
1526988315.0,286047002.4,N
1526988315.9,286047002.4,N
1526988335.8,286046999.9,N
1526988355.6,286047001.1,N
1526988375.4,286047001.2,N
1526988395.3,286047002.8,N
1526988415.1,286047000.9,N
1526988435.9,286047000.7,N
1526988455.7,286046999.0,N
1526988475.5,286046996.5,N
1526988495.4,286046998.7,N
1526988515.2,286046998.8,N
1526988535.0,286046997.0,N
1526988535.9,286046997.0,N
1526988555.8,286047001.2,N
1526988575.6,286046998.2,N
1526988595.5,286046998.4,N
1526988615.3,286046998.5,N
1526988635.1,286047001.0,N
1526988655.9,286047001.2,N
1526988675.7,286047000.2,N
1526988695.6,286046999.9,N
1526988715.4,286047001.4,N
1526988735.2,286047004.0,N
1526988755.1,286047001.8,N
1526988756.0,286047001.8,N
1526988775.8,286047003.1,N
1526988795.6,286047001.9,N
1526988815.5,286047002.5,N
1526988835.3,286047000.3,N
1526988855.2,286047001.2,N
1526988875.9,286047000.7,N
1526988895.7,286047002.3,N
1526988915.6,286047001.9,N
1526988935.4,286047004.2,N
1526988955.2,286047001.8,N
1526988975.1,286046999.7,N
1526988976.0,286046999.7,N
1526988995.8,286046998.7,N
1526989015.7,286047001.0,N
1526989035.5,286047000.6,N
1526989055.3,286047000.0,N
1526989075.2,286047002.1,N
1526989095.0,286047004.2,N
1526989095.9,286047004.2,N
1526989115.7,286047004.1,N
1526989135.6,286047003.1,N
1526989155.4,286047003.3,N
1526989175.3,286047003.8,N
1526989195.1,286047002.0,N
1526989215.8,286047002.5,N
1526989235.7,286047002.5,N
1526989255.5,286047002.4,N
1526989275.4,286047001.5,N
1526989295.2,286047001.5,N
1526989315.0,286047001.8,N
1526989315.9,286047001.8,N
1526989335.8,286047002.7,N
1526989355.6,286047002.8,N
1526989375.4,286047000.1,N
1526989395.3,286046999.9,N
1526989415.1,286046999.9,N
1526989435.9,286047000.7,N
1526989455.7,286047001.1,N
1526989475.5,286047000.9,N
1526989495.4,286046998.4,N
1526989515.2,286046998.8,N
1526989535.0,286046998.2,N
1526989535.9,286046998.2,N
1526989555.8,286046998.2,N
1526989575.6,286047000.9,N
1526989595.5,286047001.1,N
1526989615.3,286046999.9,N
1526989635.1,286046999.8,N
1526989655.9,286046999.7,N
1526989675.7,286047002.3,N
1526989695.5,286047000.1,N
1526989715.4,286047002.5,N
1526989735.2,286047002.0,N
1526989755.1,286046999.8,N
1526989756.0,286046999.8,N
1526989775.8,286047002.1,N
1526989795.6,286047001.7,N
1526989815.5,286047001.6,N
1526989835.3,286047001.9,N
1526989855.2,286046999.9,N
1526989875.9,286047000.2,N
1526989895.7,286047001.7,N
1526989915.6,286047004.1,Y
1526989935.4,286047003.2,P
1526989955.3,286047006.0,P
1526989975.1,286047005.3,N
1526989976.0,286047005.3,N
1526989995.8,286047003.1,N
1526990015.7,286047003.0,N
1526990035.5,286047003.5,N
1526990055.3,286047003.5,N
1526990075.2,286047003.7,N
1526990095.0,286047004.3,N
1526990095.9,286047004.3,N
1526990115.8,286047002.7,N
1526990135.6,286047000.0,N
1526990155.4,286047002.0,N
1526990175.3,286047000.3,N
1526990195.1,286047000.0,N
1526990215.9,286047000.3,N
1526990235.0,286047002.6,N
1526990235.9,286047002.6,N
1526990255.8,286047002.8,N
1526990275.6,286046999.8,N
1526990295.4,286047002.6,N
1526990315.3,286047002.5,N
1526990335.1,286047000.1,N
1526990355.8,286046999.8,N
1526990375.7,286047000.2,N
1526990395.5,286046999.7,N
